RH
96 94 97 97 99 100 98 83 55 46 52 56 54 52 53 57 57 53 46 45 44 41 37 32 32 37 31 18 25 31 27 32 33 32 26 21 17 17 17 19 18 16 20 22 26 26 25
94 96 98 99 100 99 99 96 43 43 41 38 43 46 43 42 42 40 39 39 38 39 31 30 43 39 23 20 31 31 32 30 34 28 26 21 16 15 17 17 16 21 22 21 25 26 26
95 95 96 98 100 100 99 97 67 31 32 33 30 34 38 39 40 40 37 35 36 34 28 27 26 30 23 31 32 32 32 35 36 33 29 33 22 16 14 20 23 24 26 27 24 24 21
96 96 96 96 95 98 99 98 94 48 28 23 24 27 31 32 32 32 31 32 31 26 25 25 21 26 29 33 32 29 29 29 32 35 36 35 24 22 20 20 19 20 20 24 24 22 23
95 93 90 87 91 91 93 98 89 59 44 32 22 22 26 27 28 29 29 28 26 24 25 23 27 21 27 29 27 32 34 28 29 31 32 29 23 20 22 18 16 14 12 16 20 21 23
88 74 55 70 47 74 73 47 63 44 45 40 32 26 27 26 26 26 26 25 24 26 27 24 19 19 23 27 32 34 35 34 27 25 27 25 22 17 13 13 21 14 11 11 15 24 24
94 60 51 40 42 25 44 74 49 39 44 37 32 32 33 27 24 25 31 33 27 27 26 32 29 26 28 32 36 29 34 27 22 22 21 23 22 17 18 18 17 15 14 16 18 25 29
86 76 48 34 28 28 19 24 59 63 41 40 35 29 31 29 22 23 29 28 40 39 28 29 28 28 32 35 26 28 30 23 22 20 22 24 20 23 23 22 21 18 18 20 23 26 26
54 49 42 41 60 28 24 18 21 41 47 47 40 39 32 32 28 37 39 47 43 49 25 26 28 27 30 32 31 31 28 24 20 23 20 25 27 25 22 22 22 24 23 24 26 26 23
56 49 45 41 36 46 31 24 19 26 44 45 41 38 31 34 35 44 43 44 46 54 41 28 27 29 29 30 30 32 27 30 22 25 24 26 25 24 23 22 25 27 25 28 32 30 22
60 58 51 44 41 36 34 30 23 20 35 45 40 39 39 35 44 31 59 37 46 42 98 30 29 28 26 29 28 27 27 22 22 24 27 37 31 28 25 26 27 32 34 34 36 33 30
66 61 58 50 44 40 35 29 21 21 28 44 41 35 37 40 47 52 39 38 52 57 89 34 30 31 26 25 26 24 21 20 24 26 26 32 30 23 24 27 30 33 33 35 35 34 47
72 68 61 55 49 44 38 30 24 20 23 44 39 37 30 31 42 37 39 48 70 66 31 32 34 30 25 26 27 25 26 22 26 43 34 34 31 30 30 31 34 33 34 55 56 72 47
74 71 69 62 54 49 42 33 24 20 24 35 50 44 39 40 44 49 58 33 74 23 28 34 34 29 26 27 27 27 26 23 24 23 29 38 49 33 27 32 36 34 38 50 73 40 32
72 71 70 68 61 54 49 38 30 22 25 41 51 63 62 60 45 48 42 76 30 23 28 31 32 25 27 28 26 25 25 23 20 24 28 26 31 31 32 30 34 40 46 38 41 44 40
70 69 69 68 67 60 54 45 35 28 23 47 56 52 58 53 57 61 35 50 29 33 32 30 19 24 18 26 24 23 26 24 24 23 24 28 35 34 37 36 40 40 36 49 53 68 43
67 65 66 68 68 67 60 53 41 32 24 40 58 39 72 57 56 39 71 32 34 35 34 29 21 24 20 22 24 20 22 28 22 25 25 28 34 44 40 41 37 45 44 39 48 45 44
71 61 62 65 66 66 66 60 49 38 27 51 46 31 65 59 39 36 38 31 38 38 38 36 33 26 23 26 27 27 27 31 22 24 30 30 35 46 35 40 38 39 36 35 44 47 40
70 66 62 63 65 66 66 66 58 42 30 68 41 38 59 64 44 38 44 44 40 42 38 38 35 34 33 30 33 31 35 36 27 28 31 35 51 68 40 47 43 48 40 38 52 64 51
76 72 70 65 64 65 65 65 64 54 35 68 44 45 48 50 44 38 41 39 44 48 39 37 37 37 37 36 32 35 38 37 31 30 49 40 49 46 39 35 37 49 46 42 48 91 48
89 84 81 75 76 68 65 64 64 60 39 66 41 36 56 46 44 40 40 32 38 49 45 38 44 38 36 37 38 40 35 46 35 48 40 40 94 44 40 36 37 40 43 39 60 53 65
93 93 90 89 88 80 71 66 65 63 42 58 43 44 50 41 48 45 48 40 36 41 43 45 47 37 36 37 34 38 39 39 42 42 42 44 84 82 79 47 45 51 44 42 44 44 42
80 73 74 90 97 94 85 75 67 64 45 44 67 66 44 42 42 40 32 30 37 37 49 44 40 42 46 40 40 40 36 40 40 44 47 56 72 85 55 51 57 71 49 41 37 34 38
81 66 60 57 75 100 93 87 74 64 49 51 63 53 42 32 37 35 42 42 45 48 44 48 47 45 52 42 41 40 41 44 45 47 47 54 74 67 71 63 63 40 37 37 39 52 48
76 75 63 54 60 70 96 97 83 67 49 56 64 54 34 39 30 35 46 47 48 49 52 50 49 48 43 40 36 32 35 38 38 44 42 52 53 64 70 48 34 28 42 44 48 48 51
94 94 90 61 59 69 83 100 80 60 46 55 66 60 50 41 39 31 36 40 40 43 46 50 50 47 49 37 35 41 39 29 40 61 65 57 50 61 56 67 44 44 39 36 43 47 48
98 97 98 81 66 73 100 99 93 80 61 56 65 66 62 41 36 41 39 43 37 36 34 47 51 54 50 40 41 40 36 37 31 32 71 81 73 78 68 62 35 41 37 35 50 42 34
96 97 93 89 96 99 100 99 96 86 92 78 71 65 78 43 37 56 49 48 54 45 36 50 40 43 56 53 49 39 39 32 40 30 46 57 64 63 55 60 63 36 36 37 31 28 26
96 96 98 100 100 100 100 100 98 99 90 86 83 72 68 63 53 66 73 72 66 61 39 48 35 37 43 51 69 55 61 66 38 37 44 46 33 32 33 35 39 29 33 28 27 28 27
Wind_Speed
20 19 18 17 16 14 11 8 6 6 5 5 5 5 4 3 2 2 2 2 4 6 6 6 2 4 2 5 6 8 9 9 4 1 2 2 5 3 5 4 3 2 4 2 2 2 5
20 20 19 19 17 15 14 12 6 4 4 3 3 2 2 1 0 2 3 4 5 5 6 6 2 3 4 4 4 7 8 6 6 2 3 2 1 1 5 3 2 3 4 2 2 3 3
18 18 18 19 19 17 15 13 11 7 4 3 2 2 0 0 1 2 4 4 3 4 5 4 3 0 11 6 4 6 7 6 7 4 4 3 2 4 5 5 4 4 3 3 4 3 1
18 18 18 18 19 18 18 15 13 9 6 4 2 1 2 2 3 3 3 3 4 4 4 2 1 4 5 1 3 7 4 5 7 8 8 4 3 5 1 6 4 3 2 3 6 2 3
18 18 19 19 19 19 19 17 13 10 7 5 3 2 2 3 3 2 3 3 4 3 4 0 2 5 5 1 3 6 5 2 4 5 3 1 1 2 4 4 4 6 4 6 5 2 2
18 18 19 19 19 19 19 19 16 10 9 5 3 2 3 4 2 2 2 3 4 2 4 2 1 3 2 3 3 4 3 2 1 2 3 3 2 3 4 5 3 2 4 3 4 3 4
17 18 19 19 20 20 19 19 17 10 10 8 4 2 3 2 2 1 2 2 4 3 9 5 4 4 4 3 2 3 2 1 1 4 4 2 6 2 4 2 3 1 2 4 1 2 4
17 18 19 19 21 22 22 21 19 14 8 10 5 4 3 2 1 1 2 4 2 2 7 4 4 5 3 2 1 5 3 3 3 3 3 4 2 4 3 1 1 1 4 2 0 1 5
17 18 19 19 20 21 22 22 23 18 8 7 5 4 2 1 0 1 0 2 1 3 1 3 3 3 2 2 2 5 5 1 0 2 2 2 6 3 2 1 1 1 5 4 5 10 6
17 17 18 19 19 20 21 22 22 21 13 8 5 4 3 2 2 3 2 2 1 2 1 3 2 3 1 1 2 2 4 2 2 3 6 5 3 1 2 1 3 3 3 4 7 7 4
16 18 18 18 19 21 21 21 21 21 14 8 6 4 3 4 1 1 2 1 2 2 1 2 3 1 1 2 1 3 1 2 2 5 2 3 2 1 2 3 3 5 3 5 4 7 7
17 17 19 20 20 21 21 23 23 21 17 5 7 4 0 1 2 2 4 1 2 0 5 3 1 1 3 1 2 0 1 3 2 2 6 4 1 2 4 2 2 1 4 4 2 2 4
16 18 17 19 21 21 21 21 22 23 21 3 4 6 3 2 2 4 1 3 1 3 1 4 2 2 1 2 2 1 1 3 1 3 4 4 3 3 1 2 3 2 4 2 2 3 2
16 17 18 17 19 22 22 21 21 22 22 9 1 3 5 5 5 1 2 3 4 1 3 2 2 2 3 0 2 0 2 3 2 2 1 3 3 1 2 3 3 3 3 2 4 4 6
14 16 18 18 18 19 22 22 21 22 22 10 1 2 0 4 1 1 3 2 2 2 4 5 3 4 4 3 1 3 0 1 2 3 2 2 3 4 3 0 2 3 3 2 4 3 4
16 16 16 18 18 17 19 21 22 22 21 8 2 2 2 2 2 5 3 4 1 1 3 2 3 1 3 4 4 3 3 3 3 1 3 2 3 1 3 1 1 3 1 3 3 3 5
14 16 16 17 18 17 17 19 21 22 20 7 4 3 1 0 1 4 3 3 3 2 1 2 2 3 2 1 3 2 1 3 1 4 0 0 1 4 2 7 4 3 2 3 3 4 4
16 15 17 16 17 17 16 17 18 21 19 6 2 3 3 2 3 2 3 2 3 7 2 1 3 2 5 5 4 4 4 2 3 6 3 2 3 5 3 4 3 3 5 8 5 5 4
16 14 14 14 17 15 16 16 17 19 18 6 2 2 2 1 4 4 1 2 2 5 5 4 4 4 2 5 4 6 3 2 3 3 3 4 4 2 4 3 2 5 7 8 2 3 8
18 18 16 14 15 13 14 16 16 16 17 3 2 2 2 3 1 3 5 5 5 2 2 4 3 4 4 6 5 4 7 4 5 5 3 3 2 7 9 6 1 5 8 11 11 4 13
16 17 17 18 18 15 13 13 15 15 16 3 2 1 2 2 5 5 3 3 9 6 4 7 3 10 7 5 7 5 6 5 5 6 4 3 4 10 15 16 15 16 16 15 15 18 14
14 16 17 17 20 19 16 13 13 14 14 3 3 2 2 2 2 5 4 7 10 6 9 6 8 7 10 7 6 4 7 7 7 8 7 4 3 1 5 14 17 20 18 21 22 23 25
13 13 13 17 18 21 18 16 12 11 8 3 0 1 2 4 3 5 5 6 8 7 5 2 8 7 9 7 1 2 4 2 2 5 9 5 3 2 6 3 7 10 18 21 18 19 15
16 18 18 15 15 22 21 19 15 10 6 2 2 2 3 5 6 6 1 3 6 8 2 3 4 7 4 4 2 1 3 5 7 10 7 6 3 3 5 3 7 3 4 1 5 3 2
21 20 20 20 20 18 23 21 16 13 7 2 3 2 3 6 4 6 6 4 3 2 2 2 2 4 3 4 3 4 4 3 6 2 9 10 9 4 4 8 14 12 4 1 2 4 2
21 23 24 25 25 22 23 21 14 10 8 5 5 6 3 4 6 3 5 7 6 7 4 4 3 1 2 3 3 4 6 2 5 4 1 4 11 7 5 5 6 5 6 3 1 10 5
20 23 27 29 27 24 26 26 21 14 8 5 2 6 3 3 2 3 4 4 3 3 0 4 5 4 2 5 6 5 6 1 4 5 6 4 5 13 12 9 7 6 4 2 5 3 3
21 22 28 22 18 23 29 26 22 17 12 13 4 6 3 2 1 2 1 2 2 2 4 5 4 2 4 5 4 4 4 4 2 2 4 8 7 5 7 9 13 5 2 3 9 11 11
19 20 20 9 15 24 21 19 17 13 11 11 5 5 5 4 3 1 1 1 3 4 1 4 1 2 4 4 2 2 3 2 4 4 3 4 5 3 6 1 3 2 5 4 7 11 12
Wind_Direction
27 25 22 24 25 26 15 11 23 40 41 52 74 76 82 92 88 53 12 346 349 356 10 349 306 178 249 134 60 352 5 2 17 87 93 234 201 200 194 134 152 161 147 155 139 229 266
26 23 20 19 22 26 21 15 10 15 23 27 40 75 103 114 20 329 321 327 344 360 5 11 101 176 271 109 357 356 7 21 32 83 81 268 256 218 119 119 256 114 141 156 218 214 235
26 25 21 18 18 19 20 17 14 10 7 358 6 343 325 261 276 283 306 319 324 348 350 10 116 105 61 74 16 23 28 32 35 69 100 72 93 253 144 136 135 139 176 171 204 200 249
22 23 21 21 18 18 17 17 11 13 6 1 351 328 314 309 307 305 307 315 333 334 332 337 208 270 71 32 30 32 24 51 53 65 94 79 78 101 9 120 149 210 225 225 138 256 156
21 20 19 20 19 17 15 12 13 15 12 3 343 320 305 307 310 299 311 331 334 339 359 2 309 273 98 32 38 16 23 41 66 72 79 92 347 93 170 211 191 201 251 212 167 164 294
20 21 22 20 20 19 17 13 8 16 12 4 358 326 312 313 305 317 332 3 34 357 334 295 248 166 130 59 17 347 1 13 43 112 179 213 193 204 199 220 253 182 234 198 266 103 260
22 21 19 18 17 21 18 15 14 8 8 2 350 343 326 308 306 325 61 304 214 159 47 35 30 81 83 72 30 37 358 286 209 227 220 161 222 202 73 22 13 15 282 279 109 59 297
18 19 18 20 18 18 19 16 15 13 7 5 1 330 325 310 301 329 2 292 18 47 94 57 70 85 57 14 142 60 336 257 219 197 185 195 172 100 85 23 360 342 292 271 194 87 300
13 15 15 16 13 18 17 19 17 13 19 14 355 340 257 219 313 6 59 114 126 327 271 85 49 46 43 319 48 19 330 271 59 115 188 190 98 128 233 157 273 63 312 11 321 319 245
7 9 11 11 11 11 17 14 17 16 9 15 24 32 142 149 176 156 104 156 29 330 229 94 129 89 170 305 148 356 9 313 176 114 68 76 115 195 183 136 320 250 33 330 315 326 307
2 1 3 5 7 6 9 11 8 15 9 10 33 53 72 190 140 207 161 131 355 266 31 110 110 77 95 283 36 76 9 256 44 106 237 95 164 171 206 53 339 51 353 317 313 292 312
359 360 358 360 2 3 5 4 8 4 11 15 23 16 34 38 87 160 158 1 278 249 251 134 110 155 192 118 91 328 128 81 53 100 67 91 77 341 35 88 30 88 276 258 276 274 251
355 356 359 357 356 0 2 4 3 3 1 356 25 30 68 135 116 146 147 238 266 233 122 159 148 178 174 127 134 5 148 136 249 177 187 155 135 115 337 232 162 264 285 299 233 215 288
342 350 353 357 355 354 357 1 2 0 356 347 90 43 59 116 129 95 243 209 242 33 160 123 153 169 225 344 132 197 200 182 126 267 178 205 193 163 28 34 7 4 339 301 281 311 334
331 338 344 349 353 354 353 357 358 359 357 355 182 312 294 319 238 194 235 227 289 145 116 163 164 219 166 173 275 224 50 34 59 358 305 283 151 120 62 46 296 128 217 62 288 204 260
312 325 333 339 345 350 351 353 356 356 354 351 291 239 186 315 228 262 220 255 212 113 133 194 229 269 212 168 212 208 176 116 139 22 340 79 254 164 110 231 101 272 78 194 205 256 254
295 307 317 327 333 343 348 351 353 356 354 353 290 242 72 359 188 234 225 197 156 148 263 235 190 172 225 216 268 259 63 118 163 132 336 307 272 116 174 203 194 152 212 225 301 282 289
278 298 301 312 322 332 342 349 353 354 359 21 306 257 9 124 221 256 235 196 130 160 184 233 285 245 210 178 203 228 218 133 158 169 167 89 320 264 289 74 359 300 250 234 230 185 238
271 277 291 301 313 318 331 341 347 353 1 329 272 296 322 327 225 212 159 178 234 165 186 192 212 242 208 207 219 210 192 104 163 201 190 162 181 251 193 170 180 238 216 234 222 317 247
267 272 273 280 284 307 319 330 338 346 350 341 270 258 175 222 294 272 189 208 200 250 221 179 169 177 192 212 228 194 197 164 173 184 122 184 254 246 262 334 122 210 216 221 215 211 258
268 268 269 271 277 283 302 319 328 337 343 312 211 247 7 222 214 227 218 160 187 187 223 197 212 227 207 222 204 231 201 155 174 157 169 212 212 255 265 278 287 270 263 249 226 240 255
279 274 264 269 271 273 283 297 317 328 338 263 283 250 174 274 242 216 184 203 206 166 174 205 226 190 222 248 232 211 193 201 198 180 196 189 232 73 262 263 262 269 268 259 252 256 261
311 306 293 262 265 269 272 282 294 313 337 277 262 270 265 128 215 223 217 217 213 180 201 270 218 191 209 226 143 26 323 332 329 201 204 193 194 207 270 88 310 275 249 243 255 254 255
315 302 300 300 277 262 260 263 275 290 298 254 254 269 252 241 220 226 288 230 216 212 265 159 213 217 90 102 114 207 241 249 250 238 245 215 193 245 277 303 250 84 65 318 267 358 342
297 294 294 288 287 275 260 252 254 262 270 239 233 243 247 256 257 246 221 204 170 150 183 204 97 48 150 168 226 245 197 223 212 279 246 231 235 244 251 237 286 289 108 1 307 196 167
301 298 293 285 277 267 256 247 227 241 240 217 214 209 262 283 232 236 201 211 216 213 168 158 119 105 206 219 210 229 234 194 182 158 132 222 231 221 213 257 276 92 105 55 291 276 118
314 307 303 289 268 253 235 238 233 239 212 217 214 207 245 239 171 197 211 204 166 196 263 131 163 165 224 198 217 230 244 52 231 207 174 156 197 216 226 243 265 113 98 86 254 13 307
319 317 319 295 262 219 213 222 224 239 243 213 191 211 261 256 185 217 195 167 134 223 194 127 142 179 187 204 211 209 244 181 233 181 191 184 189 198 229 249 256 96 140 288 351 320 311
321 328 332 318 210 197 205 206 214 210 209 197 158 194 233 271 32 122 53 4 35 18 5 180 24 145 166 191 229 192 203 180 237 243 189 227 236 247 219 40 97 257 297 327 299 299 305